Location: Ch�tillon
(48.8024°N, 2.2935°E)
Time: 07:54:02
(UTC+00:00)

LO-87 - Pass Details

Date: 04 July 2022
Orbit: 450 x 466 km, 97.4° (Epoch: 17 August)

Event Time Altitude Azimuth Distance (km) Brightness Sun altitude
Exits shadow 23:22:50 53° 179° (S) 578 ? -18.0°
Maximum altitude 23:23:34 81° 255° (WSW) 475 ? -18.0°
Drops below altitude 10° 23:27:05 10° 345° (NNW) 1,632 ? -18.1°
Sets 23:29:09 0° 347° (NNW) 2,517 ? -18.2°
